Location: ?????????
(41.2286°N, 23.0068°E)
Time: 09:10:24
(UTC+00:00)

Cosmos 2100 Rocket - Pass Details

Date: 08 November 2025
Orbit: 954 x 1000 km, 82.9° (Epoch: 05 December)

Event Time Altitude Azimuth Distance (km) Brightness Sun altitude
Rises 02:40:40 0° 355° (N) 3,641 7.0 -27.9°
Reaches altitude 10° 02:43:12 10° 359° (N) 2,691 6.3 -27.4°
Maximum altitude 02:49:18 63° 80° (E) 1,060 4.3 -26.2°
Drops below altitude 10° 02:55:23 10° 162° (SSE) 2,689 6.5 -25.1°
Sets 02:57:55 0° 165° (SSE) 3,637 7.2 -24.6°
